LBT613 DAAG-DTMB

Flight info

Callsign LBT613
Flight time 1h 7m
Altitude 37000
Route BABOR1C BABOR UZ888 DIMAO UL874 PERAM/N0368F230 V334 RIVIN BAROG1R
Aircraft A320/M-SDE3FGHIRWY/LB1

Departure

Time 2026-05-05 08:02
Airport Houari Boumediene Airport (DAAG)

Arrival

Time 2026-05-05 09:09
Airport Monastir Habib Bourguiba International Airport (DTMB)
Time Latitude Longitude Altitude Speed Heading
2026-05-05 07:35 36.69701 3.20872 88 ft 0 kts 356°
2026-05-05 07:53 36.69700 3.20872 88 ft 0 kts 356°
2026-05-05 07:53 36.69685 3.20873 89 ft 2 kts 356°
2026-05-05 07:53 36.69668 3.20875 88 ft 2 kts 356°
2026-05-05 07:53 36.69652 3.20876 88 ft 2 kts 355°
2026-05-05 07:54 36.69635 3.20878 88 ft 2 kts 358°
2026-05-05 07:54 36.69619 3.20877 88 ft 2 kts 12°
2026-05-05 07:54 36.69603 3.20870 88 ft 2 kts 61°
2026-05-05 07:54 36.69598 3.20852 91 ft 1 kts 73°
2026-05-05 07:55 36.69598 3.20851 91 ft 0 kts 78°
2026-05-05 07:56 36.69599 3.20858 91 ft 4 kts 78°
2026-05-05 07:56 36.69606 3.20885 92 ft 2 kts 68°
2026-05-05 07:56 36.69611 3.20898 88 ft 1 kts 68°
2026-05-05 07:56 36.69613 3.20907 88 ft 3 kts 68°
2026-05-05 07:57 36.69625 3.20953 90 ft 6 kts 82°
2026-05-05 07:57 36.69608 3.21004 89 ft 9 kts 138°
2026-05-05 07:57 36.69548 3.21031 88 ft 9 kts 162°
2026-05-05 07:57 36.69487 3.21054 90 ft 9 kts 162°
2026-05-05 07:58 36.69432 3.21082 88 ft 8 kts 159°
2026-05-05 07:58 36.69388 3.21121 88 ft 7 kts 127°
2026-05-05 07:58 36.69380 3.21173 89 ft 5 kts 84°
2026-05-05 07:58 36.69383 3.21215 90 ft 4 kts 85°
2026-05-05 07:59 36.69384 3.21248 88 ft 3 kts 89°
2026-05-05 07:59 36.69383 3.21302 88 ft 10 kts 90°
2026-05-05 07:59 36.69383 3.21383 88 ft 8 kts 91°
2026-05-05 07:59 36.69382 3.21449 88 ft 7 kts 91°
2026-05-05 08:00 36.69382 3.21504 88 ft 6 kts 90°
2026-05-05 08:00 36.69382 3.21549 88 ft 5 kts 90°
2026-05-05 08:00 36.69382 3.21618 88 ft 11 kts 90°
2026-05-05 08:00 36.69383 3.21734 88 ft 15 kts 89°
2026-05-05 08:01 36.69382 3.21881 88 ft 19 kts 91°
2026-05-05 08:01 36.69406 3.22046 88 ft 21 kts 51°
2026-05-05 08:01 36.69543 3.22274 88 ft 61 kts 53°
2026-05-05 08:01 36.69939 3.22926 91 ft 124 kts 54°
2026-05-05 08:02 36.70567 3.23949 105 ft 171 kts 54°
2026-05-05 08:02 36.71301 3.25123 710 ft 173 kts 52°
2026-05-05 08:02 36.72296 3.25892 1383 ft 174 kts 360°
2026-05-05 08:02 36.73418 3.25403 1974 ft 176 kts 317°
2026-05-05 08:03 36.74074 3.24143 2559 ft 176 kts 286°
2026-05-05 08:03 36.74360 3.22672 3178 ft 168 kts 269°
2026-05-05 08:03 36.74183 3.21324 3112 ft 157 kts 239°
2026-05-05 08:03 36.73569 3.20224 2886 ft 152 kts 232°
2026-05-05 08:04 36.72937 3.19199 2702 ft 145 kts 230°
2026-05-05 08:04 36.72317 3.18213 2431 ft 144 kts 232°
2026-05-05 08:04 36.71768 3.17174 2178 ft 143 kts 238°
2026-05-05 08:04 36.71250 3.16136 1927 ft 142 kts 236°
2026-05-05 08:05 36.70707 3.15115 1686 ft 141 kts 235°
2026-05-05 08:05 36.70154 3.14107 1475 ft 142 kts 235°
2026-05-05 08:05 36.69434 3.13301 1434 ft 142 kts 196°
2026-05-05 08:05 36.68467 3.13461 1335 ft 147 kts 153°
2026-05-05 08:06 36.67672 3.14293 1157 ft 155 kts 124°
2026-05-05 08:06 36.67294 3.15544 971 ft 157 kts 94°
2026-05-05 08:06 36.67374 3.16902 834 ft 159 kts 81°
2026-05-05 08:06 36.67629 3.18219 794 ft 153 kts 73°
2026-05-05 08:07 36.67998 3.19435 725 ft 145 kts 66°
2026-05-05 08:07 36.68506 3.20513 521 ft 145 kts 57°
2026-05-05 08:07 36.69102 3.21548 268 ft 148 kts 55°
2026-05-05 08:07 36.69716 3.22535 107 ft 135 kts 54°
2026-05-05 08:08 36.70222 3.23395 91 ft 111 kts 54°
2026-05-05 08:08 36.70694 3.24158 89 ft 128 kts 53°
2026-05-05 08:08 36.71355 3.25252 362 ft 171 kts 54°
2026-05-05 08:08 36.72377 3.25957 1204 ft 174 kts
2026-05-05 08:09 36.73546 3.25705 1891 ft 174 kts 336°
2026-05-05 08:09 36.74576 3.24873 2421 ft 180 kts 312°
2026-05-05 08:09 36.75271 3.23570 2975 ft 182 kts 288°
2026-05-05 08:09 36.75373 3.22039 3569 ft 178 kts 251°
2026-05-05 08:10 36.74854 3.20656 4168 ft 178 kts 240°
2026-05-05 08:10 36.74207 3.19311 4677 ft 183 kts 226°
2026-05-05 08:10 36.73027 3.18786 5207 ft 193 kts 175°
2026-05-05 08:10 36.71896 3.19723 5741 ft 212 kts 127°
2026-05-05 08:11 36.71260 3.21449 6036 ft 231 kts 114°
2026-05-05 08:11 36.70804 3.23412 6490 ft 242 kts 109°
2026-05-05 08:11 36.70350 3.25490 6808 ft 257 kts 110°
2026-05-05 08:11 36.69853 3.27722 7212 ft 277 kts 110°
2026-05-05 08:12 36.69321 3.30104 7713 ft 295 kts 107°
2026-05-05 08:12 36.68933 3.32688 8309 ft 309 kts 103°
2026-05-05 08:12 36.68553 3.35350 9099 ft 315 kts 103°
2026-05-05 08:12 36.68168 3.38053 9955 ft 319 kts 103°
2026-05-05 08:13 36.67784 3.40842 10374 ft 338 kts 102°
2026-05-05 08:13 36.67367 3.43826 10708 ft 358 kts 102°
2026-05-05 08:13 36.66927 3.46917 11303 ft 365 kts 102°
2026-05-05 08:13 36.66474 3.50059 11991 ft 371 kts 102°
2026-05-05 08:14 36.66010 3.53234 12740 ft 375 kts 102°
2026-05-05 08:14 36.65535 3.56458 13465 ft 381 kts 102°
2026-05-05 08:14 36.65052 3.59721 14158 ft 385 kts 102°
2026-05-05 08:14 36.64616 3.63021 14832 ft 388 kts 100°
2026-05-05 08:15 36.64233 3.66369 15480 ft 392 kts 99°
2026-05-05 08:15 36.63875 3.69744 16144 ft 396 kts 99°
2026-05-05 08:15 36.63517 3.73160 16799 ft 399 kts 100°
2026-05-05 08:15 36.63151 3.76598 17466 ft 403 kts 101°
2026-05-05 08:16 36.62769 3.80073 18095 ft 407 kts 101°
2026-05-05 08:16 36.62374 3.83572 18648 ft 410 kts 101°
2026-05-05 08:16 36.61966 3.87100 19225 ft 412 kts 102°
2026-05-05 08:16 36.61552 3.90645 19791 ft 415 kts 102°
2026-05-05 08:17 36.61137 3.94207 20346 ft 418 kts 102°
2026-05-05 08:17 36.60720 3.97802 20900 ft 421 kts 101°
2026-05-05 08:17 36.60301 4.01425 21432 ft 424 kts 101°
2026-05-05 08:17 36.59880 4.05066 21946 ft 427 kts 101°
2026-05-05 08:18 36.59454 4.08742 22452 ft 430 kts 102°
2026-05-05 08:18 36.59024 4.12441 22962 ft 433 kts 101°
2026-05-05 08:18 36.58591 4.16156 23478 ft 436 kts 101°
2026-05-05 08:18 36.58150 4.19902 23922 ft 439 kts 101°
2026-05-05 08:19 36.57702 4.23677 24307 ft 442 kts 101°
2026-05-05 08:19 36.57258 4.27412 24721 ft 444 kts 101°
2026-05-05 08:19 36.56805 4.31222 25131 ft 446 kts 101°
2026-05-05 08:19 36.56352 4.35052 25558 ft 448 kts 101°
2026-05-05 08:20 36.55895 4.38895 25946 ft 451 kts 101°
2026-05-05 08:20 36.55432 4.42769 26342 ft 454 kts 101°
2026-05-05 08:20 36.54965 4.46662 26725 ft 456 kts 101°
2026-05-05 08:20 36.54494 4.50561 27129 ft 457 kts 102°
2026-05-05 08:21 36.54017 4.54483 27521 ft 459 kts 101°
2026-05-05 08:21 36.53541 4.58423 27903 ft 462 kts 101°
2026-05-05 08:21 36.53064 4.62376 28274 ft 464 kts 101°
2026-05-05 08:21 36.52583 4.66355 28649 ft 466 kts 101°
2026-05-05 08:22 36.52100 4.70352 29029 ft 468 kts 101°
2026-05-05 08:22 36.51613 4.74357 29394 ft 470 kts 101°
2026-05-05 08:22 36.51121 4.78387 29756 ft 472 kts 101°
2026-05-05 08:22 36.50623 4.82433 30087 ft 475 kts 101°
2026-05-05 08:23 36.50123 4.86492 30366 ft 477 kts 102°
2026-05-05 08:23 36.49618 4.90579 30643 ft 479 kts 101°
2026-05-05 08:23 36.49107 4.94682 30903 ft 481 kts 102°
2026-05-05 08:23 36.48605 4.98796 31168 ft 484 kts 99°
2026-05-05 08:24 36.48402 5.02991 31426 ft 488 kts 93°
2026-05-05 08:24 36.48361 5.07214 31782 ft 488 kts 93°
2026-05-05 08:24 36.48321 5.11421 32151 ft 487 kts 93°
2026-05-05 08:24 36.48280 5.15633 32486 ft 487 kts 93°
2026-05-05 08:25 36.48238 5.19835 32848 ft 486 kts 93°
2026-05-05 08:25 36.48197 5.23982 33210 ft 486 kts 93°
2026-05-05 08:25 36.48153 5.28183 33614 ft 486 kts 93°
2026-05-05 08:25 36.48104 5.32374 34086 ft 485 kts 93°
2026-05-05 08:26 36.48049 5.36557 34447 ft 485 kts 93°
2026-05-05 08:26 36.47992 5.40749 34699 ft 485 kts 93°
2026-05-05 08:26 36.47935 5.44948 34945 ft 486 kts 93°
2026-05-05 08:26 36.47878 5.49141 35206 ft 486 kts 93°
2026-05-05 08:27 36.47822 5.53346 35449 ft 487 kts 93°
2026-05-05 08:27 36.47767 5.57554 35672 ft 487 kts 92°
2026-05-05 08:27 36.47710 5.61765 35927 ft 487 kts 92°
2026-05-05 08:27 36.47649 5.65970 36178 ft 488 kts 92°
2026-05-05 08:28 36.47586 5.70185 36403 ft 488 kts 92°
2026-05-05 08:28 36.47521 5.74394 36624 ft 488 kts 92°
2026-05-05 08:28 36.47456 5.78616 36842 ft 488 kts 92°
2026-05-05 08:28 36.47387 5.82840 36998 ft 489 kts 92°
2026-05-05 08:29 36.47244 5.91246 37027 ft 486 kts 92°
2026-05-05 08:30 36.47015 6.03821 37032 ft 485 kts 92°
2026-05-05 08:30 36.46884 6.10788 37032 ft 485 kts 92°
2026-05-05 08:31 36.46722 6.19172 37030 ft 485 kts 92°
2026-05-05 08:31 36.46561 6.27552 37044 ft 485 kts 92°
2026-05-05 08:32 36.46392 6.35935 37056 ft 485 kts 93°
2026-05-05 08:32 36.46217 6.44311 37065 ft 485 kts 93°
2026-05-05 08:33 36.46027 6.52701 37073 ft 485 kts 93°
2026-05-05 08:33 36.45836 6.61083 37090 ft 486 kts 92°
2026-05-05 08:34 36.45644 6.69460 37084 ft 486 kts 93°
2026-05-05 08:34 36.45446 6.77849 37080 ft 486 kts 92°
2026-05-05 08:35 36.45236 6.86241 37067 ft 486 kts 93°
2026-05-05 08:35 36.45015 6.94628 37053 ft 486 kts 93°
2026-05-05 08:36 36.44795 7.03020 37052 ft 487 kts 92°
2026-05-05 08:36 36.44575 7.11371 37051 ft 487 kts 92°
2026-05-05 08:37 36.44347 7.19764 37045 ft 486 kts 92°
2026-05-05 08:37 36.44106 7.28158 37050 ft 486 kts 93°
2026-05-05 08:38 36.43852 7.36560 37052 ft 487 kts 93°
2026-05-05 08:38 36.43605 7.44951 37053 ft 487 kts 93°
2026-05-05 08:39 36.43355 7.53355 37051 ft 487 kts 93°
2026-05-05 08:39 36.43097 7.61754 37055 ft 487 kts 93°
2026-05-05 08:40 36.42832 7.70155 37053 ft 487 kts 93°
2026-05-05 08:40 36.42557 7.78559 37061 ft 487 kts 93°
2026-05-05 08:41 36.42277 7.86958 37059 ft 487 kts 93°
2026-05-05 08:41 36.41991 7.95352 37059 ft 486 kts 93°
2026-05-05 08:42 36.41699 8.03744 37063 ft 486 kts 93°
2026-05-05 08:42 36.41395 8.12134 37066 ft 486 kts 93°
2026-05-05 08:43 36.41094 8.20455 37068 ft 486 kts 93°
2026-05-05 08:43 36.40789 8.28832 37058 ft 486 kts 93°
2026-05-05 08:44 36.40380 8.37199 37055 ft 485 kts 99°
2026-05-05 08:44 36.39131 8.45410 37054 ft 484 kts 102°
2026-05-05 08:45 36.37833 8.53622 37053 ft 485 kts 102°
2026-05-05 08:45 36.36524 8.61822 37046 ft 485 kts 103°
2026-05-05 08:46 36.35212 8.70038 37045 ft 485 kts 103°
2026-05-05 08:46 36.33899 8.78247 37045 ft 485 kts 102°
2026-05-05 08:47 36.32585 8.86454 37010 ft 485 kts 103°
2026-05-05 08:47 36.31927 8.90556 36485 ft 484 kts 102°
2026-05-05 08:47 36.31268 8.94647 35825 ft 484 kts 102°
2026-05-05 08:47 36.30609 8.98732 35353 ft 480 kts 102°
2026-05-05 08:48 36.29852 9.02728 34907 ft 474 kts 111°
2026-05-05 08:48 36.28455 9.06364 34482 ft 463 kts 127°
2026-05-05 08:48 36.26496 9.09472 34037 ft 455 kts 134°
2026-05-05 08:48 36.24450 9.12450 33521 ft 452 kts 134°
2026-05-05 08:49 36.22416 9.15390 33049 ft 448 kts 134°
2026-05-05 08:49 36.20392 9.18302 32575 ft 444 kts 134°
2026-05-05 08:49 36.18387 9.21180 32117 ft 440 kts 134°
2026-05-05 08:49 36.16394 9.24037 31662 ft 436 kts 134°
2026-05-05 08:50 36.14424 9.26863 31224 ft 432 kts 134°
2026-05-05 08:50 36.12492 9.29631 30794 ft 429 kts 134°
2026-05-05 08:50 36.10550 9.32412 30357 ft 425 kts 134°
2026-05-05 08:50 36.08604 9.35201 29887 ft 421 kts 134°
2026-05-05 08:51 36.06720 9.37899 29387 ft 418 kts 134°
2026-05-05 08:51 36.04805 9.40643 28888 ft 415 kts 134°
2026-05-05 08:51 36.02952 9.43297 28400 ft 411 kts 134°
2026-05-05 08:51 36.01092 9.45959 27950 ft 408 kts 133°
2026-05-05 08:52 35.99354 9.48721 27489 ft 407 kts 122°
2026-05-05 08:52 35.98257 9.51935 27039 ft 407 kts 104°
2026-05-05 08:52 35.97820 9.55370 26569 ft 405 kts 97°
2026-05-05 08:52 35.97509 9.58816 26195 ft 400 kts 92°
2026-05-05 08:53 35.97743 9.62209 25811 ft 396 kts 79°
2026-05-05 08:53 35.98021 9.65584 25140 ft 400 kts 92°
2026-05-05 08:53 35.97870 9.69030 24558 ft 403 kts 94°
2026-05-05 08:53 35.97679 9.72490 23987 ft 405 kts 94°
2026-05-05 08:54 35.97484 9.75956 23376 ft 406 kts 94°
2026-05-05 08:54 35.97290 9.79442 22708 ft 407 kts 94°
2026-05-05 08:54 35.97099 9.82940 22053 ft 409 kts 94°
2026-05-05 08:54 35.96911 9.86449 21413 ft 410 kts 94°
2026-05-05 08:55 35.96731 9.89959 20789 ft 411 kts 94°
2026-05-05 08:55 35.96556 9.93483 20175 ft 411 kts 94°
2026-05-05 08:55 35.96386 9.97011 19574 ft 412 kts 94°
2026-05-05 08:55 35.96221 10.00540 19030 ft 411 kts 94°
2026-05-05 08:56 35.96062 10.04047 18525 ft 409 kts 94°
2026-05-05 08:56 35.95909 10.07547 17967 ft 407 kts 94°
2026-05-05 08:56 35.95757 10.11024 17396 ft 406 kts 94°
2026-05-05 08:56 35.95603 10.14494 16830 ft 404 kts 94°
2026-05-05 08:57 35.95448 10.17949 16274 ft 402 kts 94°
2026-05-05 08:57 35.95291 10.21374 15781 ft 399 kts 94°
2026-05-05 08:57 35.95133 10.24778 15296 ft 395 kts 94°
2026-05-05 08:57 35.94973 10.28153 14817 ft 392 kts 94°
2026-05-05 08:58 35.94814 10.31493 14344 ft 389 kts 94°
2026-05-05 08:58 35.94654 10.34809 13875 ft 385 kts 94°
2026-05-05 08:58 35.94495 10.38096 13358 ft 382 kts 94°
2026-05-05 08:58 35.94335 10.41350 12840 ft 378 kts 94°
2026-05-05 08:59 35.94313 10.44566 12331 ft 374 kts 85°
2026-05-05 08:59 35.94648 10.47733 11836 ft 371 kts 82°
2026-05-05 08:59 35.95014 10.50865 11344 ft 366 kts 82°
2026-05-05 08:59 35.95380 10.53961 10864 ft 363 kts 83°
2026-05-05 09:00 35.95746 10.57020 10385 ft 359 kts 82°
2026-05-05 09:00 35.96111 10.60050 9916 ft 355 kts 82°
2026-05-05 09:00 35.96475 10.63045 9393 ft 351 kts 82°
2026-05-05 09:00 35.96843 10.66007 8892 ft 347 kts 82°
2026-05-05 09:01 35.97158 10.68940 8374 ft 342 kts 90°
2026-05-05 09:01 35.96832 10.71806 7885 ft 335 kts 107°
2026-05-05 09:01 35.96190 10.74549 7398 ft 332 kts 108°
2026-05-05 09:01 35.95524 10.77262 6921 ft 328 kts 111°
2026-05-05 09:02 35.94446 10.79696 6454 ft 321 kts 130°
2026-05-05 09:02 35.92813 10.81519 5954 ft 315 kts 146°
2026-05-05 09:02 35.91090 10.83179 5462 ft 313 kts 141°
2026-05-05 09:02 35.89437 10.84913 4973 ft 310 kts 140°
2026-05-05 09:03 35.87789 10.86607 4475 ft 307 kts 145°
2026-05-05 09:03 35.85887 10.87739 3978 ft 303 kts 165°
2026-05-05 09:03 35.83801 10.87946 3491 ft 301 kts 185°
2026-05-05 09:03 35.81746 10.87537 3024 ft 298 kts 190°
2026-05-05 09:04 35.79711 10.86913 2173 ft 308 kts 201°
2026-05-05 09:04 35.77954 10.85528 1842 ft 301 kts 227°
2026-05-05 09:04 35.77095 10.83222 1399 ft 303 kts 261°
2026-05-05 09:04 35.76985 10.80659 950 ft 303 kts 263°
2026-05-05 09:05 35.76457 10.78157 353 ft 303 kts 249°
2026-05-05 09:05 35.75858 10.75707 283 ft 281 kts 268°
2026-05-05 09:05 35.76323 10.73640 764 ft 240 kts 308°
2026-05-05 09:05 35.77618 10.72653 994 ft 203 kts 355°
2026-05-05 09:06 35.78821 10.73109 1007 ft 172 kts 51°
2026-05-05 09:06 35.79125 10.74326 1005 ft 145 kts 92°
2026-05-05 09:06 35.79281 10.75490 933 ft 136 kts 68°
2026-05-05 09:06 35.79837 10.76430 900 ft 136 kts 48°
2026-05-05 09:07 35.80140 10.77456 733 ft 135 kts 100°
2026-05-05 09:07 35.79856 10.78413 1141 ft 117 kts 112°
2026-05-05 09:07 35.79438 10.79445 971 ft 145 kts 128°
2026-05-05 09:07 35.78648 10.80156 828 ft 144 kts 164°
2026-05-05 09:08 35.77709 10.79797 569 ft 150 kts 220°
2026-05-05 09:08 35.76970 10.78983 435 ft 139 kts 226°
2026-05-05 09:08 35.76426 10.77971 219 ft 143 kts 247°
2026-05-05 09:08 35.76117 10.76814 63 ft 141 kts 256°
2026-05-05 09:09 35.75865 10.75734 17 ft 117 kts 252°
2026-05-05 09:09 35.75683 10.74981 19 ft 67 kts 253°
2026-05-05 09:09 35.75599 10.74619 17 ft 23 kts 258°
2026-05-05 09:09 35.75654 10.74506 18 ft 17 kts 342°
2026-05-05 09:10 35.75745 10.74541 17 ft 15 kts 62°
2026-05-05 09:10 35.75777 10.74669 17 ft 16 kts 69°
2026-05-05 09:10 35.75797 10.74815 17 ft 18 kts 91°
2026-05-05 09:10 35.75825 10.74968 18 ft 19 kts 77°
2026-05-05 09:11 35.75861 10.75121 17 ft 17 kts 73°
2026-05-05 09:11 35.75891 10.75251 17 ft 11 kts 72°
2026-05-05 09:11 35.75918 10.75296 17 ft 5 kts 11°
2026-05-05 09:11 35.75948 10.75286 17 ft 4 kts 343°
2026-05-05 09:12 35.75970 10.75278 19 ft 2 kts 343°
2026-05-05 09:12 35.75971 10.75278 19 ft 0 kts 344°